www.pogodaiklimat.ru

ПОГОДА в Секисовке

  • Прогноз погоды в Секисовке
  • Монитор погоды в Секисовке
  • Климат города

АРХИВ ПОГОДЫ в Секисовке

Время (UTC), дата Ветер
(напр.,м/с)
 
Видим.   Явления Облачность Т
(С)
Тd
(С)
f
(%)
Тe
(С)
Тes
(С)
Комфортность P
(гПа)
Po
(гПа)
Тmin
(С)
Tmax
(С)
R
(мм)
S
(см)
09 9.01 ЮВ 3 15 км н/о -5.7 -15.0 48 -11 -11 1032.1 976.6
12 9.01 ЮВ 4 12 км н/о -8.9 -15.5 59 -16 -16 1034.2 978.0
15 9.01 ЮВ 5 11 км н/о -8.7 -16.3 54 -16 -16 1034.6 978.4 -4.9
21 9.01 Ю 2 12 км н/о -9.7 -16.2 59 -14 -14 1034.8 978.4
00 10.01 ЮВ 2 11 км н/о -10.0 -16.3 60 -14 -14 1034.1 977.6
03 10.01 Ю 2 13 км н/о -8.3 -15.7 55 -12 -12 1033.4 977.3 152
09 10.01 ЮВ 4 16 км н/о -5.3 -14.6 48 -11 -11 1030.2 974.9
12 10.01 Ю 3 15 км н/о -5.3 -15.9 43 -10 -10 1029.4 974.2
15 10.01 ЮВ 8 15 км н/о -5.1 -14.9 46 -13 -13 1027.8 972.7 -4.9
18 10.01 ЮВ 8 15 км н/о -5.1 -14.9 46 -13 -13 1027.8 972.7 -4.9
21 10.01 ЮВ 7 16 км н/о -3.8 -16.1 38 -11 -11 1023.8 969.2
00 11.01 ЮВ 5 17 км н/о -2.7 -17.5 31 -8 -8 1022.1 967.8
03 11.01 ЮВ 8 15 км н/о -3.0 -16.7 34 -10 -10 1020.7 966.4 150
06 11.01 ЮВ 9 16 км н/о -1.4 -15.6 33 -9 -9 1019.0 965.1 47
09 11.01 ЮВ 8 17 км н/о -0.9 -16.3 30 -8 -8 1017.2 963.5
12 11.01 ЮВ 6 17 км н/о -2.3 -15.7 35 -9 -9 1017.0 963.0
15 11.01 Ю 6 14 км н/о -3.5 -15.8 38 -10 -10 1018.1 963.8 -0.9
21 11.01 Ю 7 15 км н/о -3.2 -14.0 43 -10 -10 1017.2 963.0
00 12.01 ЮЗ 5 800 м н/о -5.2 -7.8 82 -12 -12 1019.9 965.2
06 12.01 ЮЗ 3 1400 м н/о -8.6 -10.2 88 -14 -14 1024.4 968.8 25
09 12.01 Ю 3 6000 м н/о -10.1 -13.4 77 -16 -16 1027.2 971.1
12 12.01 ЮВ 3 6000 м н/о -12.5 -14.4 86 -19 -19 1029.1 972.4
15 12.01 В 1 5000 м н/о -14.5 -16.2 87 -17 -17 1029.9 972.7 -7.9
21 12.01 З 1 4300 м н/о -20.7 -22.3 87 -24 -24 1031.4 972.8
03 13.01 штиль 0 2900 м н/о -17.4 -19.0 87 -17 -17 1031.9 974.0 149
06 13.01 штиль 0 3600 м н/о -10.7 -15.5 68 -11 -11 1030.9 974.5
09 13.01 С 1 6000 м н/о -13.6 -16.9 76 -16 -16 1032.1 975.0
12 13.01 штиль 0 4900 м н/о -22.8 -24.6 85 -23 -23 1035.8 976.4
15 13.01 штиль 0 5000 м н/о -18.6 -20.5 85 -19 -19 1035.5 977.1 -10.7
06 14.01 штиль 0 3800 м н/о -17.9 -20.7 79 -18 -18 1036.7 978.4
09 14.01 штиль 0 3600 м н/о -15.8 -18.9 77 -16 -16 1036.2 978.4
12 14.01 В 1 2700 м н/о -12.6 -14.5 86 -15 -15 1035.7 978.6
15 14.01 ЮВ 5 1700 м н/о -10.5 -12.5 85 -18 -18 1034.5 977.9 -10.5
21 14.01 ЮВ 3 1000 м н/о -9.7 -11.0 90 -16 -16 1036.0 979.5
00 15.01 ЮЗ 3 2500 м н/о -10.8 -12.1 90 -17 -17 1037.2 980.4
03 15.01 ЮЗ 1 4800 м н/о -12.1 -14.0 86 -14 -14 1039.1 981.9 149
06 15.01 Ю 1 7000 м н/о -10.2 -13.5 77 -12 -12 1039.6 982.8 12
09 15.01 СЗ 1 6000 м н/о -12.0 -14.6 81 -14 -14 1040.8 983.6
12 15.01 Ю 1 6000 м н/о -23.3 -25.1 85 -27 -27 1044.7 984.7
15 15.01 штиль 0 4300 м н/о -25.3 -27.5 82 -25 -25 1044.7 984.2 -10.0
21 15.01 штиль 0 3800 м н/о -23.8 -26.1 81 -24 -24 1043.2 983.2
00 16.01 Ю 1 5000 м н/о -24.4 -26.9 80 -28 -28 1042.1 982.0
03 16.01 ЮВ 1 5000 м н/о -19.4 -21.4 84 -22 -22 1040.7 981.8 149
06 16.01 штиль 0 5000 м н/о -17.0 -18.8 86 -17 -17 1040.3 982.0
09 16.01 СЗ 1 7000 м н/о -16.5 -19.7 76 -19 -19 1040.1 981.9
12 16.01 штиль 0 3200 м н/о -24.1 -26.2 83 -24 -24 1042.6 982.5
15 16.01 СЗ 1 3400 м н/о -25.0 -27.3 81 -29 -29 1042.5 982.2 -14.3
21 16.01 Ю 1 5000 м н/о -21.0 -23.1 83 -24 -24 1041.5 982.2
00 17.01 Ю 1 5000 м н/о -22.5 -24.7 82 -26 -26 1041.7 982.1
03 17.01 штиль 0 5000 м н/о -26.6 -29.2 79 -27 -27 1043.5 982.8 143
06 17.01 З 1 5000 м н/о -16.9 -20.4 74 -20 -20 1041.2 982.9
09 17.01 Ю 1 7000 м н/о -15.8 -21.8 60 -18 -18 1040.8 982.7
12 17.01 штиль 0 4600 м н/о -25.7 -28.1 80 -26 -26 1043.7 983.2
15 17.01 штиль 0 4200 м н/о -27.2 -29.7 79 -27 -27 1044.6 983.7 -13.6
21 17.01 штиль 0 4100 м н/о -30.2 -33.2 75 -30 -30 1044.9 983.2
00 18.01 В 1 3900 м н/о -29.8 -32.8 75 -34 -34 опасность
обморожения
1044.4 982.9

 

Местоположение метеостанции Секисовка (Восточно-Казахстанская область, Казахстан): широта 50.33 долгота 82.59 высота над уровнем моря 455 м.

В архиве по умолчанию представлена погода в Секисовке за последнюю неделю. Архивные данные за месяц целиком и за предыдущие месяцы, начиная с января 2011 года, Вы можете получить, выбрав интересующий диапазон дат из раскрывающегося списка и нажав кнопку "Ввод!".

Внимание! Время в таблицах - всемирное. Для получения местного времени необходимо прибавить поправку, которая в Секисовке равна 5 ч.

Ветер - указаны скорость ветра в м/с - средняя за 10 мин, порывы в срок и между сроками (в фигурных скобках) и направление, откуда дует ветер: С - северный, СВ - северо-восточный, В - восточный, ЮВ - юго-восточный, Ю - южный, ЮЗ - юго-западный, З - западный, СЗ - северо-западный.
Видимость - горизонтальная дальность видимости в метрах или километрах. При видимости от 1 до 10 км при отсутствии осадков обычно наблюдается дымка, при ухудшении видимости до 1 км и менее - туман. В сухую погоду видимость может ухудшаться дымом, пылью или мглою.
Явления - указаны атмосферные явления, наблюдавшиеся в срок или в последний час перед сроком; фигурными скобками обозначены явления, наблюдавшиеся между сроками (за 1-3 часа до срока); квадратными скобками обозначены град или гололедные отложения с указанием их диаметра в мм.
Облачность - указаны через наклонную черту общая и нижняя облачность в баллах и высота нижней границы облаков в метрах; квадратными скобками обозначены формы облаков: Ci - перистые, Cs - перисто-слоистые, Cc - перисто-кучевые, Ac - высококучевые, As - высокослоистые, Sc - слоисто-кучевые, Ns - слоисто-дождевые, Cu - кучевые, Cb - кучево-дождевые. Подробнее классификацию облаков см. в Атласе облаков (PDF).
T - Температура воздуха - температура, измеренная на высоте 2 м над землей.
Td - Температура точки росы - температура, при понижении до которой содержащийся в воздухе водяной пар достигнет насыщения.
f - Относительная влажность воздуха - влажноcть воздуха, измеренная на высоте 2 м над землей.
Te - Эффективная температура - температура, которую ощущает одетый по сезону человек в тени. Характеристика душности погоды. При расчете учитывается влияние влажности воздуха и скорости ветра на теплоощущения человека.
Tes - Эффективная температура на солнце - температура, которую ощущает человек, с поправкой на солнечный нагрев. Характеристика знойности погоды. Зависит от высоты солнца над горизонтом, облачности и скорости ветра. Ночью, в пасмурную погоду, а также при ветре 12 м/с и более поправка равна нулю.
P - Атмосферное давление - приведенное к уровню моря атмосферное давление.
Po - Атмосферное давление - измеренное на уровне метеостанции атмосферное давление.
Tmin - Минимальная температура - минимум температуры воздуха на высоте 2 м над землей.
Tmax - Максимальная температура - максимум температуры воздуха на высоте 2 м над землей.
R - Количество осадков - Количество выпавших осадков, мм. При наведении курсора мыши на число - период времени, за который выпало указанное количество осадков.
S - Снежный покров - Высота снежного покрова, см. При наведении курсора мыши на число - состояние снежного покрова и степень покрытия местности в баллах.